Regional Weather Roundup
Issued by NWS

Home | Current Version | Previous Version | Text Only | Print | Product List | Glossary On
Versions: 1 2 3 4 5 6 7 8 9 10 11 12 13 14 15 16 17 18 19 20 21 22 23 24 25
000
ASUS42 KKEY 220710
RWRKEY

FLORIDA REGIONAL WEATHER ROUNDUP FOR THE FLORIDA KEYS
NATIONAL WEATHER SERVICE KEY WEST FLORIDA
300 AM EDT SUN APR 22 2018

...SOUTH FLORIDA AND THE KEYS...

CITY           SKY/WX    TMP DP  RH WIND       PRES   REMARKS
FORT MYERS     FAIR      73  71  93 E7        30.07F
SW REGIONAL AP FAIR      71  71 100 E8        30.07F
NAPLES         MOCLDY    73  72  96 E7        30.06F
MIAMI          MOCLDY    77  73  87 E13       30.05F
WEST KENDALL   HVY RAIN  73  69  87 S17G25    30.05F FOG
HOMESTEAD      FAIR      74  68  81 E10       30.04F
MARATHON       FAIR      78  72  81 E9        30.03F
KEY WEST INTL  FAIR      78  72  81 E15       30.04F

...INTERNATIONAL WEATHER...

CITY           SKY/WX    TMP DP  RH WIND       PRES   REMARKS
NASSAU BAHAMAS NOT AVBL
CANCUN MEXICO  PTCLDY    79  73  83 E9        29.99
COZUMEL MEXICO PTCLDY    77  73  88 SE6       29.96F

ADJACENT COASTAL WATERS...

STATION/POSITION TIME  SKY/WX   TEMP    WIND        PRES    WAVE
                                AIR SEA DIR/SP/G            HT/PER
                 (UTC)          (F)     (DEG/KT/KT) (MB)    (FT/S)
PULASKI SHOAL LI 0700            77     130/ 10/ 11 1017.4F
SAND KEY         0650            77                 1017.0F
SOMBRERO KEY     0650            78      60/ 13/ 16 1016.2F
LONG KEY         0700            78 81  100/ 16/ 17 1016.8F
MOLASSES REEF    NOT AVBL
FOWEY ROCKS      0700            78 78   90/ 21/ 22 1018.0F
Buoy 42078       0630               78                N/A     2/ 4
Buoy 42097       0630               76                N/A     1/ 6

$$




USA.gov is the U.S. government's official web portal to all federal, state and local government web resources and services.